EN

Hourly Weather Guildford

Today, 27 January, Wednesday

Time Temperature Precipitation Wind Pressure Humidity
00:00 +6°C° 0.1 mm 4 mps 749 mmHg 97%
01:00 +6°C° 0.6 mm 4 mps 749 mmHg 97%
02:00 +7°C° 0.6 mm 3 mps 749 mmHg 97%
03:00 +5°C° 0.6 mm 3 mps 749 mmHg 97%
04:00 +5°C° 0.1 mm 3 mps 749 mmHg 95%
05:00 +5°C° 0.1 mm 3 mps 749 mmHg 94%
06:00 +5°C° 0.1 mm 2 mps 749 mmHg 92%
07:00 +5°C° 0 mm 2 mps 750 mmHg 93%
08:00 +5°C° 0 mm 2 mps 750 mmHg 94%
09:00 +6°C° 0 mm 2 mps 750 mmHg 94%
10:00 +7°C° 0 mm 2 mps 751 mmHg 92%
11:00 +8°C° 0 mm 2 mps 751 mmHg 89%
12:00 +9°C° 0 mm 3 mps 751 mmHg 87%
13:00 +9°C° 0 mm 2 mps 751 mmHg 88%
14:00 +9°C° 0 mm 2 mps 751 mmHg 90%
15:00 +10°C° 0 mm 1 mps 751 mmHg 91%
16:00 +9°C° 0 mm 1 mps 751 mmHg 93%
17:00 +9°C° 0 mm 1 mps 751 mmHg 94%
18:00 +8°C° 0 mm 1 mps 751 mmHg 96%
19:00 +8°C° 0.5 mm 1 mps 751 mmHg 97%
20:00 +8°C° 0.5 mm 1 mps 750 mmHg 97%
21:00 +8°C° 0.5 mm 1 mps 750 mmHg 98%
22:00 +8°C° 1.1 mm 2 mps 749 mmHg 98%
23:00 +8°C° 1.1 mm 3 mps 749 mmHg 98%

Tomorrow, 28 January, Thursday

Time Temperature Precipitation Wind Pressure Humidity
00:00 +7°C° 1.1 mm 4 mps 748 mmHg 98%
01:00 +8°C° 0.4 mm 4 mps 747 mmHg 97%
02:00 +8°C° 0.4 mm 5 mps 746 mmHg 96%
03:00 +9°C° 0.4 mm 6 mps 745 mmHg 95%
04:00 +9°C° 0.9 mm 6 mps 744 mmHg 94%
05:00 +9°C° 0.9 mm 6 mps 744 mmHg 94%
06:00 +10°C° 0.9 mm 6 mps 743 mmHg 94%
07:00 +10°C° 0.1 mm 6 mps 743 mmHg 93%
08:00 +10°C° 0.1 mm 7 mps 743 mmHg 93%
09:00 +10°C° 0.1 mm 7 mps 743 mmHg 93%
10:00 +10°C° 0.1 mm 7 mps 743 mmHg 90%
11:00 +11°C° 0.1 mm 8 mps 743 mmHg 87%
12:00 +11°C° 0.1 mm 8 mps 744 mmHg 84%
13:00 +11°C° 0 mm 7 mps 744 mmHg 85%
14:00 +10°C° 0 mm 7 mps 744 mmHg 85%
15:00 +10°C° 0 mm 6 mps 744 mmHg 85%
16:00 +10°C° 0 mm 5 mps 744 mmHg 87%
17:00 +10°C° 0 mm 4 mps 744 mmHg 90%
18:00 +10°C° 0 mm 3 mps 744 mmHg 92%
19:00 +10°C° 0.1 mm 4 mps 744 mmHg 93%
20:00 +10°C° 0.1 mm 4 mps 744 mmHg 94%
21:00 +9°C° 0.1 mm 5 mps 743 mmHg 95%
22:00 +9°C° 0.7 mm 5 mps 743 mmHg 94%
23:00 +9°C° 0.7 mm 6 mps 743 mmHg 92%

Day after tomorrow, 29 January, Friday

Time Temperature Precipitation Wind Pressure Humidity
00:00 +9°C° 0.7 mm 6 mps 742 mmHg 91%
01:00 +8°C° 0 mm 6 mps 742 mmHg 91%
02:00 +7°C° 0 mm 6 mps 742 mmHg 91%
03:00 +6°C° 0 mm 5 mps 742 mmHg 91%
04:00 +6°C° 0 mm 5 mps 742 mmHg 90%
05:00 +7°C° 0 mm 6 mps 743 mmHg 89%
06:00 +7°C° 0 mm 6 mps 743 mmHg 88%
07:00 +7°C° 0 mm 6 mps 743 mmHg 89%
08:00 +7°C° 0 mm 6 mps 744 mmHg 89%
09:00 +7°C° 0 mm 6 mps 744 mmHg 89%
10:00 +6°C° 0.1 mm 7 mps 744 mmHg 85%
11:00 +8°C° 0.1 mm 7 mps 744 mmHg 80%
12:00 +9°C° 0.1 mm 7 mps 745 mmHg 76%
13:00 +9°C° 0 mm 7 mps 744 mmHg 76%
14:00 +9°C° 0 mm 6 mps 744 mmHg 75%
15:00 +9°C° 0 mm 5 mps 744 mmHg 75%
16:00 +8°C° 0 mm 5 mps 743 mmHg 80%
17:00 +7°C° 0 mm 4 mps 743 mmHg 85%
18:00 +7°C° 0 mm 3 mps 743 mmHg 91%
19:00 +7°C° 0 mm 3 mps 742 mmHg 92%
20:00 +6°C° 0 mm 2 mps 742 mmHg 94%
21:00 +6°C° 0 mm 2 mps 741 mmHg 95%
22:00 +6°C° 0.1 mm 2 mps 741 mmHg 96%
23:00 +7°C° 0.1 mm 2 mps 740 mmHg 96%

30 January, Saturday

Time Temperature Precipitation Wind Pressure Humidity
00:00 +7°C° 0.1 mm 2 mps 739 mmHg 97%
01:00 +7°C° 0.7 mm 3 mps 738 mmHg 97%
02:00 +7°C° 0.7 mm 3 mps 737 mmHg 97%
03:00 +6°C° 0.7 mm 4 mps 736 mmHg 96%
04:00 +6°C° 1 mm 5 mps 735 mmHg 95%
05:00 +5°C° 1 mm 6 mps 735 mmHg 94%
06:00 +5°C° 1 mm 7 mps 734 mmHg 93%
07:00 +5°C° 1.1 mm 7 mps 735 mmHg 92%
08:00 +5°C° 1.1 mm 8 mps 735 mmHg 92%
09:00 +4°C° 1.1 mm 8 mps 736 mmHg 91%
10:00 +3°C° 0.6 mm 9 mps 737 mmHg 91%
11:00 +2°C° 0.6 mm 9 mps 738 mmHg 90%
12:00 +1°C° 0.6 mm 10 mps 739 mmHg 90%
13:00 +1°C° 0 mm 10 mps 740 mmHg 85%
14:00 +1°C° 0 mm 9 mps 741 mmHg 80%
15:00 +1°C° 0 mm 9 mps 742 mmHg 76%
16:00 0°C° 0 mm 8 mps 744 mmHg 74%
17:00 -1°C° 0 mm 7 mps 745 mmHg 73%
18:00 -1°C° 0 mm 6 mps 746 mmHg 72%
19:00 -1°C° 0 mm 5 mps 747 mmHg 74%
20:00 -1°C° 0 mm 5 mps 748 mmHg 76%
21:00 -1°C° 0 mm 4 mps 749 mmHg 78%
22:00 -1°C° 0 mm 3 mps 750 mmHg 80%
23:00 -1°C° 0 mm 3 mps 750 mmHg 83%

31 January, Sunday

Time Temperature Precipitation Wind Pressure Humidity
00:00 -1°C° 0 mm 2 mps 751 mmHg 85%
01:00 +1°C° 0 mm 1 mps 751 mmHg 86%
02:00 +1°C° 0 mm 1 mps 751 mmHg 86%
03:00 0°C° 0 mm 0 mps 751 mmHg 87%
04:00 +1°C° 0 mm 1 mps 750 mmHg 86%
05:00 +1°C° 0 mm 1 mps 750 mmHg 86%
06:00 +2°C° 0 mm 1 mps 750 mmHg 85%
07:00 +1°C° 0 mm 2 mps 750 mmHg 84%
08:00 +1°C° 0 mm 3 mps 749 mmHg 83%
09:00 +1°C° 0 mm 3 mps 749 mmHg 81%
10:00 0°C° 0 mm 5 mps 748 mmHg 77%
11:00 +1°C° 0 mm 6 mps 747 mmHg 73%
12:00 0°C° 0 mm 7 mps 746 mmHg 68%
13:00 0°C° 0 mm 7 mps 745 mmHg 69%
14:00 0°C° 0 mm 7 mps 744 mmHg 70%
15:00 0°C° 0 mm 7 mps 742 mmHg 70%
16:00 +1°C° 0.1 mm 6 mps 742 mmHg 78%
17:00 +1°C° 0.1 mm 6 mps 741 mmHg 85%
18:00 +1°C° 0.1 mm 5 mps 741 mmHg 93%
19:00 +2°C° 0.1 mm 5 mps 741 mmHg 94%
20:00 +2°C° 0.1 mm 5 mps 740 mmHg 95%
21:00 +4°C° 0.1 mm 4 mps 740 mmHg 96%
22:00 +4°C° 0.3 mm 4 mps 740 mmHg 96%
23:00 +5°C° 0.3 mm 4 mps 740 mmHg 96%

1 February, Monday

Time Temperature Precipitation Wind Pressure Humidity
00:00 +6°C° 0.3 mm 4 mps 740 mmHg 96%
01:00 +6°C° 0 mm 5 mps 740 mmHg 94%
02:00 +6°C° 0 mm 5 mps 740 mmHg 92%
03:00 +4°C° 0 mm 6 mps 740 mmHg 90%
04:00 +5°C° 0.3 mm 5 mps 739 mmHg 92%
05:00 +5°C° 0.3 mm 5 mps 739 mmHg 93%
06:00 +5°C° 0.3 mm 5 mps 739 mmHg 95%
07:00 +6°C° 0.7 mm 4 mps 739 mmHg 95%
08:00 +7°C° 0.7 mm 3 mps 739 mmHg 96%
09:00 +7°C° 0.7 mm 3 mps 739 mmHg 97%
10:00 +7°C° 0.1 mm 4 mps 739 mmHg 94%
11:00 +8°C° 0.1 mm 5 mps 739 mmHg 91%
12:00 +9°C° 0.1 mm 5 mps 740 mmHg 87%
13:00 +9°C° 0 mm 5 mps 740 mmHg 87%
14:00 +10°C° 0 mm 5 mps 740 mmHg 86%
15:00 +10°C° 0 mm 5 mps 739 mmHg 85%
16:00 +10°C° 0.4 mm 6 mps 739 mmHg 88%
17:00 +9°C° 0.4 mm 6 mps 739 mmHg 90%
18:00 +9°C° 0.4 mm 7 mps 739 mmHg 92%
19:00 +9°C° 0.2 mm 7 mps 739 mmHg 90%
20:00 +9°C° 0.2 mm 7 mps 739 mmHg 87%
21:00 +9°C° 0.2 mm 7 mps 739 mmHg 85%
22:00 +8°C° 0 mm 7 mps 739 mmHg 84%
23:00 +6°C° 0 mm 7 mps 739 mmHg 82%
Show more